AAL2576 KCLT-KMEM

Flight info

Callsign AAL2576
Flight time 1h 32m
Altitude 32000
Route BOBZY5 BNA BLUZZ5
Aircraft A320/M-SDE3FGHIRWY/LB1

Departure

Time 2026-05-06 19:09
Airport Charlotte Douglas International Airport (KCLT)

Arrival

Time 2026-05-06 20:41
Airport Memphis International Airport (KMEM)
Time Latitude Longitude Altitude Speed Heading
2026-05-06 18:35 35.21957 -80.94559 733 ft 0 kts 102°
2026-05-06 18:58 35.21957 -80.94562 732 ft 2 kts 102°
2026-05-06 18:58 35.21964 -80.94593 730 ft 4 kts 96°
2026-05-06 18:58 35.21959 -80.94614 730 ft 3 kts 37°
2026-05-06 18:58 35.21937 -80.94633 731 ft 4 kts 31°
2026-05-06 18:59 35.21915 -80.94651 732 ft 4 kts 53°
2026-05-06 18:59 35.21907 -80.94675 747 ft 4 kts 84°
2026-05-06 18:59 35.21906 -80.94691 732 ft 0 kts 86°
2026-05-06 19:02 35.21928 -80.94689 741 ft 4 kts 306°
2026-05-06 19:02 35.21922 -80.94782 732 ft 16 kts 259°
2026-05-06 19:02 35.21879 -80.94896 733 ft 12 kts 261°
2026-05-06 19:02 35.21870 -80.95004 733 ft 13 kts 282°
2026-05-06 19:03 35.21939 -80.95051 734 ft 11 kts 357°
2026-05-06 19:03 35.22016 -80.95055 734 ft 13 kts 356°
2026-05-06 19:03 35.22130 -80.95065 734 ft 20 kts 357°
2026-05-06 19:03 35.22297 -80.95079 734 ft 28 kts 356°
2026-05-06 19:04 35.22506 -80.95096 733 ft 30 kts 356°
2026-05-06 19:04 35.22642 -80.95108 733 ft 14 kts 355°
2026-05-06 19:04 35.22677 -80.95112 733 ft 0 kts 355°
2026-05-06 19:05 35.22680 -80.95112 733 ft 4 kts 355°
2026-05-06 19:05 35.22731 -80.95156 733 ft 10 kts 287°
2026-05-06 19:05 35.22731 -80.95190 735 ft 0 kts 264°
2026-05-06 19:06 35.22731 -80.95191 735 ft 1 kts 264°
2026-05-06 19:07 35.22727 -80.95245 738 ft 6 kts 264°
2026-05-06 19:07 35.22724 -80.95281 739 ft 4 kts 264°
2026-05-06 19:07 35.22704 -80.95312 740 ft 6 kts 207°
2026-05-06 19:07 35.22666 -80.95313 739 ft 0 kts 176°
2026-05-06 19:08 35.22584 -80.95307 741 ft 44 kts 176°
2026-05-06 19:08 35.22035 -80.95259 741 ft 111 kts 176°
2026-05-06 19:09 35.21088 -80.95170 753 ft 161 kts 176°
2026-05-06 19:09 35.19959 -80.95038 1416 ft 160 kts 178°
2026-05-06 19:09 35.18865 -80.94916 2160 ft 160 kts 179°
2026-05-06 19:09 35.17755 -80.94811 2848 ft 160 kts 182°
2026-05-06 19:10 35.16615 -80.94713 3225 ft 172 kts 183°
2026-05-06 19:10 35.15408 -80.94993 3472 ft 186 kts 214°
2026-05-06 19:10 35.14572 -80.96242 3795 ft 202 kts 253°
2026-05-06 19:10 35.14548 -80.98055 4140 ft 229 kts 275°
2026-05-06 19:11 35.14805 -81.00060 4723 ft 246 kts 277°
2026-05-06 19:11 35.15114 -81.02137 5571 ft 250 kts 277°
2026-05-06 19:11 35.15432 -81.04225 6565 ft 249 kts 279°
2026-05-06 19:11 35.15745 -81.06317 7474 ft 251 kts 278°
2026-05-06 19:12 35.16052 -81.08406 8442 ft 250 kts 278°
2026-05-06 19:12 35.16353 -81.10490 9403 ft 248 kts 278°
2026-05-06 19:12 35.16649 -81.12578 10225 ft 253 kts 278°
2026-05-06 19:12 35.16957 -81.14783 10511 ft 275 kts 278°
2026-05-06 19:13 35.17289 -81.17185 10737 ft 298 kts 278°
2026-05-06 19:13 35.17644 -81.19756 11222 ft 312 kts 278°
2026-05-06 19:13 35.18009 -81.22388 11996 ft 315 kts 278°
2026-05-06 19:13 35.18377 -81.25043 12765 ft 317 kts 278°
2026-05-06 19:14 35.18747 -81.27716 13524 ft 320 kts 278°
2026-05-06 19:14 35.19114 -81.30374 14201 ft 323 kts 278°
2026-05-06 19:14 35.19428 -81.33100 14842 ft 325 kts 273°
2026-05-06 19:14 35.19405 -81.35873 15493 ft 328 kts 268°
2026-05-06 19:15 35.19325 -81.38671 16140 ft 331 kts 269°
2026-05-06 19:15 35.19242 -81.41490 16790 ft 334 kts 269°
2026-05-06 19:15 35.19160 -81.44336 17414 ft 337 kts 269°
2026-05-06 19:15 35.19079 -81.47220 18070 ft 341 kts 269°
2026-05-06 19:16 35.18996 -81.50129 18704 ft 344 kts 269°
2026-05-06 19:16 35.18912 -81.53064 19294 ft 347 kts 269°
2026-05-06 19:16 35.18821 -81.56024 19901 ft 350 kts 269°
2026-05-06 19:16 35.18719 -81.59016 20480 ft 353 kts 269°
2026-05-06 19:17 35.18611 -81.62027 21010 ft 356 kts 269°
2026-05-06 19:17 35.18506 -81.65064 21522 ft 359 kts 269°
2026-05-06 19:17 35.18427 -81.68129 22020 ft 362 kts 269°
2026-05-06 19:17 35.18367 -81.71213 22519 ft 365 kts 269°
2026-05-06 19:18 35.18317 -81.74327 23002 ft 367 kts 270°
2026-05-06 19:18 35.18269 -81.77418 23470 ft 370 kts 270°
2026-05-06 19:18 35.18215 -81.80619 23870 ft 373 kts 269°
2026-05-06 19:18 35.18155 -81.83759 24227 ft 375 kts 269°
2026-05-06 19:19 35.18085 -81.86993 24585 ft 378 kts 269°
2026-05-06 19:19 35.18010 -81.90176 24940 ft 380 kts 269°
2026-05-06 19:19 35.17935 -81.93407 25279 ft 383 kts 269°
2026-05-06 19:19 35.17861 -81.96681 25629 ft 385 kts 269°
2026-05-06 19:20 35.17787 -81.99960 25968 ft 387 kts 269°
2026-05-06 19:20 35.17713 -82.03262 26301 ft 390 kts 269°
2026-05-06 19:20 35.17636 -82.06590 26618 ft 392 kts 269°
2026-05-06 19:20 35.17559 -82.09930 26932 ft 395 kts 269°
2026-05-06 19:21 35.17479 -82.13295 27239 ft 397 kts 269°
2026-05-06 19:21 35.17397 -82.16673 27538 ft 399 kts 269°
2026-05-06 19:21 35.17392 -82.20066 27814 ft 402 kts 274°
2026-05-06 19:21 35.17837 -82.23455 28088 ft 406 kts 283°
2026-05-06 19:22 35.18612 -82.26731 28359 ft 408 kts 284°
2026-05-06 19:22 35.19411 -82.30070 28604 ft 410 kts 284°
2026-05-06 19:22 35.20207 -82.33426 28876 ft 412 kts 284°
2026-05-06 19:22 35.21002 -82.36800 29140 ft 413 kts 284°
2026-05-06 19:23 35.21793 -82.40177 29410 ft 414 kts 284°
2026-05-06 19:23 35.22587 -82.43557 29764 ft 413 kts 283°
2026-05-06 19:23 35.23379 -82.46931 30126 ft 412 kts 284°
2026-05-06 19:23 35.24168 -82.50293 30434 ft 410 kts 283°
2026-05-06 19:24 35.24954 -82.53640 30762 ft 408 kts 283°
2026-05-06 19:24 35.25739 -82.56977 31103 ft 406 kts 283°
2026-05-06 19:24 35.26514 -82.60286 31445 ft 403 kts 283°
2026-05-06 19:24 35.27281 -82.63573 31803 ft 401 kts 283°
2026-05-06 19:25 35.28045 -82.66849 32001 ft 399 kts 283°
2026-05-06 19:25 35.29559 -82.73357 32030 ft 396 kts 283°
2026-05-06 19:26 35.30807 -82.78737 32018 ft 395 kts 283°
2026-05-06 19:26 35.32551 -82.86269 32013 ft 395 kts 283°
2026-05-06 19:27 35.34042 -82.92732 32000 ft 395 kts 283°
2026-05-06 19:27 35.35533 -82.99203 31995 ft 394 kts 283°
2026-05-06 19:28 35.36768 -83.04581 31995 ft 394 kts 283°
2026-05-06 19:28 35.38253 -83.11044 31989 ft 394 kts 282°
2026-05-06 19:29 35.39732 -83.17504 31994 ft 394 kts 282°
2026-05-06 19:29 35.41201 -83.23962 31993 ft 393 kts 282°
2026-05-06 19:30 35.42669 -83.30427 31996 ft 393 kts 282°
2026-05-06 19:30 35.44121 -83.36872 31998 ft 392 kts 282°
2026-05-06 19:31 35.45571 -83.43318 31993 ft 392 kts 282°
2026-05-06 19:31 35.47740 -83.52992 31991 ft 392 kts 282°
2026-05-06 19:32 35.49183 -83.59430 31986 ft 391 kts 282°
2026-05-06 19:32 35.50624 -83.65867 31985 ft 391 kts 282°
2026-05-06 19:33 35.52056 -83.72308 31985 ft 391 kts 281°
2026-05-06 19:33 35.53472 -83.78707 31973 ft 390 kts 281°
2026-05-06 19:34 35.54900 -83.85142 31966 ft 390 kts 282°
2026-05-06 19:34 35.56321 -83.91576 31958 ft 390 kts 282°
2026-05-06 19:35 35.57732 -83.98013 31965 ft 391 kts 281°
2026-05-06 19:35 35.59153 -84.04469 31961 ft 392 kts 281°
2026-05-06 19:36 35.60572 -84.10935 31965 ft 392 kts 281°
2026-05-06 19:36 35.61986 -84.17392 31977 ft 392 kts 281°
2026-05-06 19:37 35.63396 -84.23853 31984 ft 392 kts 281°
2026-05-06 19:37 35.64800 -84.30326 31983 ft 392 kts 281°
2026-05-06 19:38 35.66197 -84.36791 31986 ft 392 kts 281°
2026-05-06 19:38 35.67581 -84.43225 31981 ft 392 kts 281°
2026-05-06 19:39 35.68971 -84.49715 31968 ft 392 kts 281°
2026-05-06 19:39 35.70364 -84.56200 31968 ft 392 kts 280°
2026-05-06 19:40 35.71757 -84.62693 31973 ft 392 kts 280°
2026-05-06 19:40 35.73142 -84.69171 31980 ft 391 kts 280°
2026-05-06 19:41 35.74527 -84.75647 31985 ft 391 kts 280°
2026-05-06 19:41 35.75887 -84.82071 31979 ft 390 kts 280°
2026-05-06 19:42 35.77247 -84.88537 31974 ft 390 kts 279°
2026-05-06 19:42 35.78609 -84.95002 31986 ft 390 kts 279°
2026-05-06 19:43 35.79968 -85.01461 31998 ft 389 kts 279°
2026-05-06 19:43 35.81322 -85.07913 32009 ft 389 kts 279°
2026-05-06 19:44 35.82677 -85.14360 32016 ft 388 kts 279°
2026-05-06 19:44 35.84017 -85.20754 32015 ft 387 kts 279°
2026-05-06 19:45 35.85348 -85.27166 32015 ft 386 kts 279°
2026-05-06 19:45 35.86673 -85.33578 32007 ft 385 kts 278°
2026-05-06 19:46 35.87991 -85.39967 31987 ft 384 kts 278°
2026-05-06 19:46 35.89302 -85.46350 31995 ft 383 kts 278°
2026-05-06 19:47 35.90599 -85.52717 31995 ft 382 kts 278°
2026-05-06 19:47 35.91895 -85.59063 31997 ft 381 kts 278°
2026-05-06 19:48 35.93193 -85.65391 31996 ft 380 kts 278°
2026-05-06 19:48 35.94479 -85.71702 31992 ft 379 kts 278°
2026-05-06 19:49 35.95754 -85.78010 31992 ft 378 kts 277°
2026-05-06 19:49 35.97023 -85.84311 31995 ft 378 kts 277°
2026-05-06 19:50 35.98288 -85.90604 32004 ft 378 kts 277°
2026-05-06 19:50 35.99555 -85.96896 32007 ft 377 kts 277°
2026-05-06 19:51 36.00815 -86.03175 32009 ft 376 kts 277°
2026-05-06 19:51 36.02068 -86.09439 32013 ft 375 kts 277°
2026-05-06 19:52 36.03306 -86.15656 32017 ft 375 kts 277°
2026-05-06 19:52 36.04548 -86.21904 32017 ft 373 kts 277°
2026-05-06 19:53 36.05781 -86.28128 32017 ft 372 kts 277°
2026-05-06 19:53 36.07012 -86.34332 32046 ft 371 kts 277°
2026-05-06 19:54 36.08234 -86.40517 32047 ft 370 kts 277°
2026-05-06 19:54 36.09443 -86.46661 32050 ft 369 kts 276°
2026-05-06 19:55 36.10649 -86.52830 32052 ft 369 kts 276°
2026-05-06 19:55 36.11854 -86.58986 32071 ft 368 kts 276°
2026-05-06 19:56 36.13053 -86.65123 32070 ft 367 kts 276°
2026-05-06 19:56 36.13267 -86.71258 32066 ft 354 kts 258°
2026-05-06 19:57 36.12313 -86.77227 32056 ft 353 kts 257°
2026-05-06 19:57 36.11365 -86.83188 32022 ft 353 kts 257°
2026-05-06 19:58 36.10419 -86.89138 32014 ft 353 kts 257°
2026-05-06 19:58 36.09470 -86.95098 32013 ft 353 kts 257°
2026-05-06 19:59 36.08522 -87.01014 32006 ft 353 kts 257°
2026-05-06 19:59 36.07566 -87.06967 32012 ft 353 kts 257°
2026-05-06 20:00 36.06602 -87.12923 32007 ft 353 kts 257°
2026-05-06 20:00 36.05633 -87.18871 32013 ft 353 kts 257°
2026-05-06 20:01 36.04665 -87.24826 32016 ft 354 kts 257°
2026-05-06 20:01 36.03696 -87.30786 32016 ft 354 kts 257°
2026-05-06 20:02 36.02729 -87.36707 32056 ft 350 kts 257°
2026-05-06 20:02 36.01774 -87.42580 32060 ft 347 kts 257°
2026-05-06 20:03 36.00813 -87.48395 32060 ft 344 kts 257°
2026-05-06 20:03 35.99857 -87.54139 32057 ft 343 kts 257°
2026-05-06 20:04 35.98903 -87.59905 32054 ft 342 kts 257°
2026-05-06 20:04 35.97944 -87.65660 32038 ft 342 kts 257°
2026-05-06 20:05 35.96983 -87.71409 32037 ft 342 kts 256°
2026-05-06 20:05 35.95995 -87.77148 32039 ft 342 kts 256°
2026-05-06 20:06 35.94998 -87.82878 32033 ft 342 kts 256°
2026-05-06 20:06 35.94011 -87.88575 32026 ft 342 kts 256°
2026-05-06 20:07 35.93022 -87.94311 32029 ft 342 kts 256°
2026-05-06 20:07 35.92021 -88.00043 32024 ft 342 kts 256°
2026-05-06 20:08 35.91017 -88.05785 32029 ft 342 kts 256°
2026-05-06 20:08 35.90008 -88.11519 32028 ft 342 kts 256°
2026-05-06 20:09 35.88997 -88.17259 32034 ft 342 kts 256°
2026-05-06 20:09 35.87984 -88.22997 32038 ft 343 kts 256°
2026-05-06 20:10 35.86972 -88.28736 32039 ft 343 kts 256°
2026-05-06 20:10 35.85958 -88.34480 32037 ft 343 kts 256°
2026-05-06 20:11 35.84952 -88.40227 32038 ft 343 kts 256°
2026-05-06 20:11 35.83952 -88.45940 32041 ft 343 kts 256°
2026-05-06 20:12 35.82938 -88.51724 32039 ft 343 kts 256°
2026-05-06 20:12 35.81937 -88.57433 32041 ft 343 kts 256°
2026-05-06 20:13 35.80923 -88.63183 32041 ft 343 kts 256°
2026-05-06 20:13 35.80409 -88.66072 31652 ft 345 kts 256°
2026-05-06 20:13 35.79917 -88.68836 31418 ft 346 kts 256°
2026-05-06 20:14 35.79401 -88.71713 31181 ft 349 kts 256°
2026-05-06 20:14 35.78877 -88.74643 30887 ft 352 kts 256°
2026-05-06 20:14 35.78347 -88.77604 30015 ft 356 kts 255°
2026-05-06 20:14 35.77813 -88.80594 29138 ft 356 kts 256°
2026-05-06 20:15 35.77289 -88.83538 28710 ft 347 kts 256°
2026-05-06 20:15 35.76777 -88.86414 28156 ft 341 kts 256°
2026-05-06 20:15 35.76269 -88.89254 27569 ft 337 kts 256°
2026-05-06 20:15 35.75766 -88.92058 26989 ft 334 kts 256°
2026-05-06 20:16 35.75269 -88.94837 26425 ft 331 kts 256°
2026-05-06 20:16 35.74774 -88.97593 25873 ft 328 kts 256°
2026-05-06 20:16 35.74281 -89.00323 25327 ft 325 kts 256°
2026-05-06 20:16 35.73793 -89.03026 24796 ft 322 kts 256°
2026-05-06 20:17 35.73154 -89.05620 24242 ft 316 kts 247°
2026-05-06 20:17 35.72105 -89.08023 23566 ft 319 kts 238°
2026-05-06 20:17 35.70665 -89.10141 22660 ft 327 kts 231°
2026-05-06 20:17 35.69093 -89.12156 21814 ft 325 kts 231°
2026-05-06 20:18 35.67549 -89.14145 21287 ft 325 kts 232°
2026-05-06 20:18 35.65994 -89.16153 20787 ft 322 kts 232°
2026-05-06 20:18 35.64470 -89.18120 20471 ft 312 kts 232°
2026-05-06 20:18 35.62999 -89.20015 19833 ft 303 kts 232°
2026-05-06 20:19 35.61549 -89.21892 19365 ft 301 kts 232°
2026-05-06 20:19 35.60112 -89.23752 18916 ft 300 kts 232°
2026-05-06 20:19 35.58670 -89.25613 18455 ft 300 kts 232°
2026-05-06 20:19 35.57232 -89.27459 17953 ft 298 kts 232°
2026-05-06 20:20 35.55808 -89.29287 17481 ft 295 kts 231°
2026-05-06 20:20 35.54395 -89.31102 16990 ft 293 kts 231°
2026-05-06 20:20 35.52987 -89.32902 16540 ft 292 kts 230°
2026-05-06 20:20 35.51586 -89.34695 16108 ft 290 kts 230°
2026-05-06 20:21 35.50189 -89.36483 15811 ft 290 kts 230°
2026-05-06 20:21 35.48792 -89.38270 15537 ft 290 kts 229°
2026-05-06 20:21 35.47396 -89.40058 15272 ft 290 kts 229°
2026-05-06 20:21 35.46020 -89.41822 15018 ft 290 kts 229°
2026-05-06 20:22 35.44627 -89.43602 14752 ft 289 kts 229°
2026-05-06 20:22 35.43236 -89.45380 14495 ft 289 kts 228°
2026-05-06 20:22 35.41845 -89.47160 14238 ft 289 kts 228°
2026-05-06 20:22 35.40456 -89.48938 13976 ft 288 kts 228°
2026-05-06 20:23 35.39068 -89.50714 13699 ft 288 kts 227°
2026-05-06 20:23 35.37678 -89.52490 13430 ft 289 kts 228°
2026-05-06 20:23 35.36287 -89.54265 13171 ft 289 kts 228°
2026-05-06 20:23 35.34892 -89.56043 12909 ft 290 kts 228°
2026-05-06 20:24 35.34045 -89.57130 12754 ft 290 kts 228°
2026-05-06 20:24 35.33122 -89.58313 12575 ft 290 kts 228°
2026-05-06 20:24 35.31728 -89.60091 12348 ft 285 kts 228°
2026-05-06 20:25 35.30384 -89.61794 12219 ft 272 kts 228°
2026-05-06 20:25 35.29094 -89.63426 12058 ft 262 kts 228°
2026-05-06 20:25 35.27835 -89.65019 11799 ft 259 kts 229°
2026-05-06 20:25 35.26587 -89.66602 11557 ft 259 kts 229°
2026-05-06 20:26 35.25338 -89.68191 11310 ft 259 kts 229°
2026-05-06 20:26 35.24086 -89.69781 11089 ft 260 kts 229°
2026-05-06 20:26 35.22827 -89.71376 10991 ft 261 kts 229°
2026-05-06 20:26 35.21565 -89.72973 10996 ft 262 kts 229°
2026-05-06 20:27 35.20300 -89.74577 11002 ft 262 kts 229°
2026-05-06 20:27 35.19034 -89.76185 10996 ft 263 kts 229°
2026-05-06 20:27 35.17767 -89.77793 10998 ft 263 kts 229°
2026-05-06 20:27 35.16497 -89.79402 11001 ft 263 kts 229°
2026-05-06 20:28 35.15229 -89.81007 10706 ft 264 kts 229°
2026-05-06 20:28 35.13943 -89.82641 10054 ft 276 kts 229°
2026-05-06 20:28 35.12610 -89.84328 9682 ft 274 kts 229°
2026-05-06 20:28 35.11203 -89.85856 9516 ft 270 kts 215°
2026-05-06 20:29 35.09436 -89.86605 9272 ft 277 kts 191°
2026-05-06 20:29 35.07490 -89.86637 8908 ft 281 kts 185°
2026-05-06 20:29 35.05532 -89.86610 8542 ft 283 kts 185°
2026-05-06 20:29 35.03560 -89.86576 8192 ft 283 kts 185°
2026-05-06 20:30 35.01591 -89.86540 7844 ft 282 kts 185°
2026-05-06 20:30 34.97823 -89.86459 7098 ft 259 kts 185°
2026-05-06 20:30 34.96063 -89.86428 6750 ft 246 kts 186°
2026-05-06 20:31 34.94391 -89.86401 6422 ft 234 kts 186°
2026-05-06 20:31 34.92787 -89.86379 6088 ft 228 kts 186°
2026-05-06 20:31 34.91224 -89.86364 5776 ft 227 kts 186°
2026-05-06 20:31 34.89649 -89.86351 5442 ft 226 kts 186°
2026-05-06 20:32 34.88082 -89.86337 5114 ft 224 kts 186°
2026-05-06 20:32 34.86520 -89.86323 4811 ft 224 kts 185°
2026-05-06 20:32 34.84960 -89.86309 4490 ft 224 kts 185°
2026-05-06 20:32 34.83398 -89.86292 4181 ft 224 kts 184°
2026-05-06 20:33 34.81849 -89.86273 3873 ft 222 kts 183°
2026-05-06 20:33 34.80303 -89.86257 3571 ft 221 kts 184°
2026-05-06 20:33 34.78804 -89.86508 3270 ft 214 kts 208°
2026-05-06 20:33 34.77710 -89.87641 2967 ft 207 kts 244°
2026-05-06 20:34 34.77368 -89.89304 2676 ft 205 kts 272°
2026-05-06 20:34 34.77488 -89.91013 2386 ft 207 kts 283°
2026-05-06 20:34 34.77736 -89.92783 2077 ft 212 kts 285°
2026-05-06 20:34 34.78072 -89.94492 1974 ft 209 kts 294°
2026-05-06 20:35 34.78798 -89.95950 1983 ft 199 kts 323°
2026-05-06 20:35 34.79969 -89.96708 2008 ft 185 kts 351°
2026-05-06 20:35 34.81175 -89.96807 2011 ft 164 kts
2026-05-06 20:35 34.82273 -89.96826 1986 ft 151 kts
2026-05-06 20:36 34.83269 -89.96845 1995 ft 137 kts
2026-05-06 20:36 34.84203 -89.96864 1993 ft 132 kts
2026-05-06 20:36 34.85118 -89.96882 1984 ft 131 kts
2026-05-06 20:36 34.86023 -89.96901 1989 ft 129 kts
2026-05-06 20:37 34.86917 -89.96919 1990 ft 128 kts
2026-05-06 20:37 34.87820 -89.96938 1992 ft 129 kts
2026-05-06 20:37 34.88713 -89.96956 1999 ft 129 kts
2026-05-06 20:37 34.89618 -89.96975 2002 ft 130 kts
2026-05-06 20:38 34.90511 -89.96994 2008 ft 128 kts
2026-05-06 20:38 34.91406 -89.97012 1998 ft 130 kts
2026-05-06 20:38 34.92305 -89.97031 2006 ft 129 kts
2026-05-06 20:38 34.93200 -89.97050 2009 ft 128 kts
2026-05-06 20:39 34.94095 -89.97069 1972 ft 129 kts
2026-05-06 20:39 34.94991 -89.97088 1859 ft 129 kts
2026-05-06 20:39 34.95882 -89.97106 1718 ft 127 kts
2026-05-06 20:39 34.96757 -89.97125 1550 ft 128 kts
2026-05-06 20:40 34.97655 -89.97143 1390 ft 126 kts
2026-05-06 20:40 34.98528 -89.97162 1207 ft 130 kts
2026-05-06 20:40 34.99423 -89.97180 1015 ft 129 kts 360°
2026-05-06 20:40 35.00317 -89.97199 824 ft 128 kts 358°
2026-05-06 20:41 35.01212 -89.97217 645 ft 128 kts 358°
2026-05-06 20:41 35.02099 -89.97240 435 ft 127 kts 358°
2026-05-06 20:41 35.02972 -89.97252 331 ft 122 kts 356°
2026-05-06 20:41 35.03574 -89.97268 329 ft 43 kts 359°
2026-05-06 20:42 35.03766 -89.97272 329 ft 31 kts 358°
2026-05-06 20:42 35.04012 -89.97289 328 ft 39 kts 349°
2026-05-06 20:42 35.04173 -89.97407 325 ft 19 kts 311°
2026-05-06 20:42 35.04201 -89.97571 326 ft 20 kts 267°
2026-05-06 20:43 35.04193 -89.97727 329 ft 17 kts 266°
2026-05-06 20:43 35.04199 -89.97831 327 ft 10 kts 307°
2026-05-06 20:43 35.04213 -89.97867 329 ft 7 kts 254°
2026-05-06 20:43 35.04201 -89.97976 328 ft 15 kts 297°
2026-05-06 20:44 35.04257 -89.98045 330 ft 9 kts 317°
2026-05-06 20:44 35.04282 -89.98061 329 ft 2 kts 342°
2026-05-06 20:44 35.04290 -89.98063 327 ft 0 kts 351°
2026-05-06 20:45 35.04282 -89.98061 329 ft 0 kts 351°
2026-05-06 20:45 35.04282 -89.98062 326 ft 0 kts 344°
2026-05-06 20:46 35.04298 -89.98077 336 ft 2 kts 294°
2026-05-06 20:46 35.04292 -89.98110 320 ft 0 kts 268°